Tracking 29892 objects as of 21-Nov-2024
HD Live streaming from Space Station
objects crossing your sky now

ARIANE 44L+ DEB

Track ARIANE 44L+ DEB now!


NORAD ID: 23237
Int'l Code: 1992-021G
Perigee: 934.9 km
Apogee: 35,524.9 km
Inclination: 3.3 °
Period: 640.0 minutes
Semi major axis: 24600 km
RCS: 0.784 m2 (medium)
Launch date: April 15, 1992
Source: France (FR)
Launch site: FRENCH GUIANA (FRGUI)

Note: This is SATELLITE DEBRIS
Your satellite tracking list
Your tracking list is empty




NASA's NSSDC Master Catalog

Two Line Element Set (TLE):
1 23237U 92021G   24325.95874156 -.00000074  00000-0  77091-2 0  9990
2 23237   3.3350 113.0682 7030231 265.7858  30.1669  2.24996925253059
Source of the keplerian elements: AFSPC